Total_Precipitation_Accumulation
0.04 0.08 0.18 0.14 0.14 0.13 0.12 0.12 0.15 0.17 0.22 0.27 0.24 0.22 0.22 0.22 0.23 0.20 0.24 0.26 0.29 0.32 0.30 0.30 0.32 0.34 0.36 0.34 0.23 0.11 0.06 0.05 0.05 0.04 0.04 0.06 0.08 0.09 0.08 0.08 0.09 0.10 0.13
0.03 0.08 0.16 0.15 0.15 0.15 0.16 0.15 0.15 0.18 0.24 0.30 0.29 0.26 0.27 0.27 0.26 0.24 0.23 0.25 0.27 0.27 0.28 0.25 0.21 0.17 0.13 0.10 0.07 0.04 0.04 0.02 0.01 0.01 0.01 0.03 0.05 0.06 0.05 0.05 0.08 0.11 0.14
0.04 0.08 0.14 0.16 0.17 0.16 0.17 0.16 0.16 0.20 0.26 0.30 0.32 0.33 0.30 0.28 0.27 0.28 0.28 0.25 0.27 0.24 0.25 0.18 0.12 0.08 0.05 0.03 0.02 0.02 0.02 0.01 0.01 0.01 0.02 0.02 0.04 0.06 0.05 0.06 0.09 0.14 0.16
0.06 0.09 0.13 0.17 0.19 0.19 0.19 0.19 0.19 0.22 0.27 0.31 0.35 0.37 0.35 0.34 0.33 0.31 0.27 0.22 0.23 0.20 0.18 0.11 0.06 0.04 0.03 0.02 0.02 0.01 0.01 0.01 0.01 0.02 0.03 0.03 0.03 0.08 0.08 0.09 0.11 0.13 0.13
0.10 0.12 0.18 0.24 0.24 0.22 0.21 0.22 0.23 0.24 0.28 0.33 0.41 0.45 0.43 0.42 0.39 0.33 0.24 0.20 0.18 0.15 0.14 0.10 0.04 0.03 0.02 0.02 0.02 0.01 0.01 0.01 0.00 0.01 0.01 0.02 0.04 0.08 0.09 0.09 0.11 0.12 0.12
0.17 0.19 0.26 0.31 0.32 0.29 0.26 0.24 0.26 0.29 0.30 0.34 0.42 0.47 0.45 0.44 0.44 0.36 0.28 0.18 0.13 0.11 0.12 0.09 0.05 0.03 0.02 0.02 0.02 0.02 0.01 0.01 0.00 0.00 0.01 0.02 0.04 0.09 0.08 0.09 0.12 0.15 0.16
0.28 0.33 0.35 0.37 0.37 0.36 0.33 0.29 0.27 0.30 0.32 0.36 0.43 0.45 0.47 0.45 0.45 0.45 0.34 0.19 0.11 0.11 0.12 0.10 0.07 0.06 0.04 0.03 0.03 0.03 0.02 0.01 0.00 0.00 0.01 0.02 0.04 0.09 0.10 0.11 0.12 0.15 0.17
0.41 0.50 0.50 0.49 0.43 0.39 0.38 0.38 0.34 0.35 0.36 0.41 0.47 0.46 0.47 0.47 0.46 0.47 0.39 0.24 0.15 0.12 0.12 0.11 0.09 0.08 0.07 0.05 0.04 0.03 0.02 0.01 0.00 0.00 0.01 0.02 0.05 0.08 0.09 0.10 0.10 0.11 0.13
0.69 0.73 0.66 0.59 0.50 0.45 0.40 0.38 0.38 0.38 0.40 0.45 0.50 0.48 0.48 0.46 0.47 0.45 0.40 0.28 0.20 0.16 0.15 0.14 0.12 0.09 0.07 0.06 0.04 0.03 0.02 0.01 0.00 0.00 0.01 0.01 0.04 0.08 0.09 0.11 0.12 0.12 0.12
0.93 0.97 0.89 0.76 0.66 0.56 0.48 0.40 0.36 0.37 0.38 0.42 0.43 0.37 0.37 0.40 0.43 0.40 0.32 0.26 0.22 0.18 0.16 0.15 0.12 0.11 0.08 0.06 0.04 0.02 0.01 0.01 0.00 0.00 0.01 0.01 0.04 0.10 0.14 0.15 0.14 0.12 0.11
1.11 1.09 1.08 0.95 0.79 0.67 0.55 0.44 0.37 0.36 0.36 0.36 0.34 0.29 0.29 0.33 0.36 0.30 0.22 0.19 0.23 0.23 0.18 0.15 0.13 0.11 0.08 0.04 0.03 0.02 0.01 0.00 0.00 0.00 0.01 0.02 0.08 0.14 0.14 0.10 0.08 0.08 0.08
1.14 1.10 1.11 1.02 0.91 0.81 0.66 0.50 0.44 0.39 0.37 0.33 0.29 0.29 0.28 0.28 0.32 0.27 0.24 0.20 0.21 0.23 0.21 0.20 0.18 0.14 0.08 0.03 0.01 0.01 0.01 0.00 0.00 0.01 0.02 0.04 0.08 0.10 0.08 0.06 0.06 0.07 0.06
1.22 1.25 1.21 1.13 1.00 0.94 0.85 0.61 0.46 0.40 0.40 0.38 0.31 0.30 0.31 0.31 0.34 0.34 0.31 0.27 0.24 0.21 0.18 0.17 0.17 0.12 0.06 0.03 0.02 0.01 0.01 0.01 0.01 0.01 0.01 0.02 0.04 0.06 0.06 0.05 0.05 0.04 0.03
1.28 1.26 1.26 1.25 1.11 0.95 0.86 0.74 0.57 0.44 0.39 0.39 0.34 0.32 0.34 0.34 0.31 0.30 0.30 0.27 0.28 0.24 0.20 0.18 0.15 0.11 0.08 0.06 0.04 0.02 0.02 0.01 0.01 0.01 0.01 0.01 0.01 0.03 0.05 0.05 0.04 0.04 0.04
1.23 1.29 1.26 1.27 1.22 1.06 0.94 0.80 0.67 0.55 0.47 0.45 0.42 0.36 0.34 0.34 0.31 0.30 0.30 0.33 0.34 0.33 0.28 0.24 0.20 0.17 0.13 0.10 0.07 0.04 0.03 0.02 0.02 0.01 0.01 0.02 0.02 0.02 0.04 0.05 0.06 0.07 0.08
1.06 1.23 1.28 1.27 1.29 1.23 1.03 0.88 0.75 0.62 0.51 0.52 0.50 0.43 0.42 0.39 0.39 0.35 0.32 0.31 0.33 0.35 0.36 0.32 0.27 0.26 0.22 0.17 0.12 0.09 0.06 0.04 0.03 0.02 0.02 0.02 0.02 0.02 0.02 0.04 0.08 0.11 0.13
1.00 1.19 1.21 1.27 1.35 1.33 1.21 1.06 0.83 0.72 0.57 0.51 0.53 0.51 0.51 0.48 0.45 0.44 0.40 0.35 0.32 0.34 0.37 0.39 0.38 0.37 0.31 0.26 0.20 0.17 0.13 0.10 0.08 0.05 0.03 0.02 0.02 0.02 0.02 0.03 0.07 0.12 0.16
1.12 1.21 1.26 1.25 1.37 1.37 1.34 1.30 1.12 0.88 0.70 0.58 0.58 0.61 0.55 0.54 0.54 0.54 0.49 0.38 0.33 0.39 0.42 0.40 0.38 0.37 0.32 0.26 0.21 0.19 0.16 0.14 0.12 0.11 0.09 0.06 0.04 0.03 0.03 0.03 0.05 0.09 0.14
1.20 1.24 1.38 1.34 1.39 1.48 1.48 1.49 1.40 1.21 0.98 0.80 0.69 0.64 0.63 0.60 0.59 0.62 0.57 0.51 0.48 0.43 0.42 0.43 0.38 0.36 0.34 0.31 0.27 0.22 0.17 0.13 0.10 0.10 0.09 0.08 0.06 0.05 0.04 0.04 0.05 0.07 0.10
1.22 1.32 1.45 1.49 1.49 1.65 1.75 1.76 1.70 1.47 1.21 1.07 0.90 0.78 0.74 0.75 0.72 0.69 0.68 0.67 0.68 0.61 0.50 0.46 0.44 0.41 0.37 0.38 0.40 0.35 0.28 0.21 0.15 0.11 0.09 0.08 0.07 0.07 0.06 0.05 0.05 0.05 0.07
1.22 1.33 1.42 1.51 1.58 1.72 1.74 1.72 1.70 1.54 1.36 1.21 1.10 1.01 0.96 0.93 0.95 0.89 0.82 0.85 0.86 0.80 0.70 0.64 0.61 0.58 0.53 0.52 0.52 0.44 0.36 0.32 0.26 0.19 0.15 0.12 0.09 0.08 0.08 0.07 0.06 0.05 0.05
1.03 1.23 1.37 1.46 1.60 1.62 1.63 1.73 1.86 1.93 1.76 1.50 1.35 1.22 1.11 1.08 1.08 1.04 1.01 0.98 0.97 0.97 0.96 0.92 0.88 0.83 0.76 0.75 0.74 0.69 0.53 0.39 0.28 0.20 0.18 0.17 0.15 0.14 0.11 0.10 0.09 0.08 0.07
0.87 1.08 1.32 1.45 1.60 1.64 1.68 1.90 2.04 2.16 2.00 1.72 1.37 1.21 1.19 1.22 1.24 1.15 1.12 1.16 1.11 1.06 1.03 1.02 1.01 0.98 0.93 0.89 0.87 0.91 0.75 0.51 0.33 0.23 0.19 0.17 0.17 0.16 0.16 0.16 0.15 0.13 0.10
0.75 0.91 1.08 1.26 1.45 1.63 1.68 1.73 1.78 1.85 1.82 1.61 1.49 1.41 1.42 1.43 1.42 1.36 1.29 1.28 1.25 1.20 1.10 1.09 1.07 1.02 0.99 0.94 0.90 0.82 0.74 0.60 0.53 0.38 0.23 0.21 0.21 0.20 0.21 0.21 0.21 0.20 0.19
0.65 0.85 0.98 1.09 1.29 1.51 1.62 1.67 1.78 1.75 1.75 1.83 1.79 1.69 1.60 1.55 1.51 1.46 1.41 1.38 1.32 1.26 1.21 1.21 1.18 1.15 1.08 1.02 0.97 0.91 0.88 0.75 0.61 0.57 0.41 0.27 0.27 0.26 0.25 0.24 0.24 0.24 0.24
0.56 0.73 0.93 0.99 1.11 1.27 1.48 1.66 1.71 1.65 1.68 1.72 1.72 1.68 1.67 1.66 1.62 1.52 1.44 1.39 1.33 1.30 1.28 1.27 1.30 1.26 1.20 1.14 1.09 1.02 1.01 0.94 0.79 0.74 0.64 0.42 0.35 0.29 0.27 0.27 0.27 0.28 0.28